Home   Weather   Hobart   Past weeks

Flag for Australia Past Weather in Hobart, Tasmania, Australia — Yesterday and Last 2 Weeks

Now
57 °F

Scattered clouds.


Feels Like: 57 °F
Forecast: 47 / 67 °F
Wind: 3 mph from Northeast

Location: Hobart Airport

Current Time: Feb 21, 2017 at 10:30:03 am

Latest Report: Feb 21, 2017 at 9:30 am


Visibility: N/A

Pressure: 30.04 "Hg

Humidity: 59%

Dew Point: 43 °F

Location of HobartLocation

Past Weather in Hobart — Graph

°F

Hobart Temperature Yesterday

Maximum temperature yesterday: 63 °F (at 12:00 pm)
Minimum temperature yesterday: 48 °F (at 1:30 am)
Average temperature yesterday: 54 °F

High & Low Weather Summary for the Past Weeks

 TemperatureHumidityPressure
High81 °F (Feb 15, 5:00 pm)94% (Feb 20, 3:30 pm)30.39 "Hg (Feb 20, 3:30 pm)
Low48 °F (Feb 14, 5:30 am)18% (Feb 15, 5:00 pm)29.36 "Hg (Feb 12, 2:00 pm)
Average60 °F56%29.78 "Hg
* Reported Feb 6 9:00 am — Feb 21 9:00 am, Hobart, Weather by CustomWeather, © 2017

Note: Actual official high and low records may vary slightly from our data, if they occured in-between our weather recording intervals... More about our weather records

Advertising

Hobart Weather History for the Previous 24 Hours

Scroll right to see more
 ConditionsComfort  
Time TempWeatherWind HumidityBarometerVisibility
9:00 am
Tue, Feb 21
55 °FScattered clouds.6 mph67%30.04 "HgN/A
8:30 am54 °FScattered clouds.8 mph72%30.04 "HgN/A
8:00 am52 °FPassing clouds.7 mph77%30.04 "HgN/A
7:30 am52 °FPassing clouds.6 mph77%30.01 "HgN/A
7:00 am52 °FPartly sunny.6 mph77%30.01 "HgN/A
6:30 am50 °FPassing clouds.7 mph76%29.98 "HgN/A
6:00 am50 °FPassing clouds.1 mph82%29.98 "HgN/A
5:30 am50 °FPassing clouds.6 mph71%29.95 "HgN/A
5:00 am50 °FPassing clouds.9 mph76%29.95 "HgN/A
4:30 am52 °FPassing clouds.10 mph72%29.95 "HgN/A
4:00 am52 °FPassing clouds.8 mph62%29.95 "HgN/A
3:30 am54 °FPassing clouds.8 mph58%29.92 "HgN/A
3:00 am54 °FPassing clouds.13 mph58%29.92 "HgN/A
2:30 am54 °FPassing clouds.10 mph67%29.92 "HgN/A
2:00 am54 °FPassing clouds.8 mph67%29.92 "HgN/A
1:30 am54 °FPassing clouds.7 mph72%29.92 "HgN/A
1:00 am55 °FPassing clouds.9 mph67%29.92 "HgN/A
12:30 am55 °FPassing clouds.10 mph67%29.92 "HgN/A
12:00 am55 °FPassing clouds.10 mph72%29.92 "HgN/A
11:30 pm
Mon, Feb 20
55 °FPassing clouds.12 mph72%29.92 "HgN/A
11:00 pm55 °FPassing clouds.10 mph72%29.92 "HgN/A
10:30 pm55 °FPassing clouds.10 mph77%29.89 "HgN/A
10:00 pm55 °FPassing clouds.9 mph77%29.89 "HgN/A
9:30 pm57 °FPartly cloudy.9 mph72%29.89 "HgN/A
9:00 pm57 °FSprinkles. Partly cloudy.10 mph72%29.86 "HgN/A
8:30 pm57 °FPassing clouds.13 mph72%29.86 "HgN/A
8:00 pm57 °FBroken clouds.8 mph77%29.86 "HgN/A
7:30 pm57 °FScattered showers. Broken clouds.10 mph77%29.83 "HgN/A
7:00 pm57 °FSprinkles. Broken clouds.15 mph82%29.83 "HgN/A
6:30 pm57 °FScattered showers. Partly sunny.15 mph82%29.80 "HgN/A
6:00 pm57 °FSprinkles. Broken clouds.15 mph88%29.80 "Hg4 mi
5:30 pm57 °FSprinkles. Partly sunny.15 mph88%29.77 "HgN/A
5:00 pm57 °FSprinkles. Broken clouds.16 mph88%29.77 "Hg4 mi
4:30 pm57 °FSprinkles. Broken clouds.14 mph88%29.77 "Hg6 mi
4:00 pm57 °FBroken clouds.9 mph88%29.77 "HgN/A
3:30 pm55 °FSprinkles. Partly sunny.13 mph94%29.77 "HgN/A
3:21 pm55 °FSprinkles. Broken clouds.14 mph88%29.77 "Hg6 mi
3:00 pm55 °FRain showers. Partly sunny.15 mph88%29.77 "Hg4 mi
2:30 pm63 °FScattered showers. Partly sunny.17 mph64%29.74 "HgN/A
2:00 pm63 °FScattered showers. Broken clouds.15 mph73%29.74 "HgN/A
1:30 pm61 °FSprinkles. Broken clouds.20 mph68%29.74 "Hg6 mi
1:00 pm63 °FSprinkles. Broken clouds.16 mph56%29.74 "HgN/A
12:30 pm63 °FScattered showers. Partly sunny.14 mph59%29.77 "HgN/A
12:00 pm63 °FBroken clouds.13 mph59%29.77 "HgN/A
11:00 am57 °FBroken clouds.7 mph67%29.77 "HgN/A
10:30 am57 °FBroken clouds.9 mph67%29.77 "HgN/A
10:00 am55 °FBroken clouds.7 mph72%29.77 "HgN/A
Weather by CustomWeather, © 2017

See weather overviewHow to use our weather pages